Bodensee (Kressbronn): 6,1°C  -  Teich der Wetterzentrale Bad Schussenried: 5,6°C |  Schneehöhe Kreuzthal-Steinberg (930 m ü. NN): 8 cm   
01.04.2020Höhe
ü. NN
ZeitTemperatur (°C)Nieder-
schlag
Luft-
feuchte
Luft-
druck
Wind
StationaktuellMinimumMaximumaktuellMaximum
Aldingen654 m07:26-5,6-5,6 (08:00)-0,3 (16:02)0,0 l/m²83%1023,20,0 km/h (0 Bft) W29,6 km/h (5 Bft) W (14:48)
Allmendingen541 m07:25-6,4-6,7 (07:05)-2,1 (15:10)0,0 l/m²89%1022,90,0 km/h (0 Bft) O35,4 km/h (5 Bft) O (15:35)
Altshausen574 m07:25-3,8-4,1 (06:33)-1,1 (00:16)0,0 l/m²67%1020,58,0 km/h (2 Bft) N11,3 km/h (2 Bft) N (06:10)
Amstetten-Reutti663 m07:25-4,6-4,7 (07:05)-1,5 (16:55)0,0 l/m²86%1022,71,6 km/h (1 Bft) W-SW48,3 km/h (6 Bft) W (15:55)
Amtzell-Grenis677 m07:25-2,2-4,1 (06:05)-1,4 (00:00)0,0 l/m²57%1022,712,9 km/h (3 Bft) O-NO12,9 km/h (3 Bft) N (06:45)
Aulendorf570 m07:25-3,2-3,2 (07:05)-0,5 (00:00)0,0 l/m²73%1021,58,0 km/h (2 Bft) N-NO17,7 km/h (3 Bft) O-NO (07:06)
Bad Krozingen233 m07:25-1,8-2,3 (06:50)3,7 (16:05)0,0 l/m²77%1023,33,5 km/h (1 Bft) S-SO38,1 km/h (5 Bft) N (17:05)
Bad Saulgau595 m07:25-4,8-5,2 (08:00)-1,9 (15:00)0,0 l/m²88%1021,43,2 km/h (1 Bft) S-SO25,7 km/h (4 Bft) S (11:35)
Bad Saulgau, Mannsgrab588 m07:28-4,4-6,1 (05:34)-1,7 (00:17)0,0 l/m²85%1023,90,0 km/h (0 Bft) N-NO0,0 km/h (0 Bft) N (00:00)
Bad Saulgau-Lampertsweiler627 m07:25-4,7-4,8 (06:15)0,2 (00:00)0,0 l/m²83%1024,58,0 km/h (2 Bft) N-NW22,5 km/h (4 Bft) N-NW (01:15)
Bad Schussenried572 m07:25-4,3-4,3 (07:05)-1,1 (00:00)0,0 l/m²88%1021,00,0 km/h (0 Bft) NO9,7 km/h (2 Bft) NO (03:15)
Bergatreute615 m07:25-4,0-4,1 (07:20)0,0 (00:00)0,0 l/m²88%1021,64,8 km/h (1 Bft) NO17,7 km/h (3 Bft) O (01:55)
Biberach (Riss), Boehringer533 m07:30-4,0-4,4 (07:00)-1,1 (00:30)0,0 l/m²90%1021,74,3 km/h (1 Bft) N11,9 km/h (3 Bft) N (03:00)
Biberach (Riss), Realschule553 m07:25-4,2-4,3 (07:15)-0,3 (00:00)0,0 l/m²88%1023,66,4 km/h (2 Bft) N-NW12,9 km/h (3 Bft) N (06:05)
Burgrieden523 m07:25-4,3-4,3 (07:00)-0,4 (00:00)0,0 l/m²83%1022,70,0 km/h (0 Bft) O-NO4,8 km/h (1 Bft) O-NO (02:50)
Burgrieden-Hochstetten510 m07:25-4,4-4,8 (08:00)-0,9 (15:40)0,0 l/m²89%1023,13,2 km/h (1 Bft) N-NO25,7 km/h (4 Bft) NO (12:55)
Ebersbach579 m07:25-3,9-4,0 (07:15)-0,1 (00:00)0,0 l/m²87%1023,04,8 km/h (1 Bft) N16,1 km/h (3 Bft) NO (01:25)
Ebersbach-Boos605 m07:25-4,7-4,7 (07:15)-0,1 (00:00)0,0 l/m²90%1022,816,1 km/h (3 Bft) NO22,5 km/h (4 Bft) O (01:00)
Ebersbach-Menzenweiler661 m07:25-3,9-3,9 (06:20)-0,6 (00:00)0,0 l/m²88%1022,717,7 km/h (3 Bft) NO24,1 km/h (4 Bft) O-NO (01:05)
Ehingen535 m01:10-2,5-2,5 (01:10)-1,3 (00:05)0,0 l/m²70%1025,40,0 km/h (0 Bft) N-NO5,0 km/h (1 Bft) N-NO (00:15)
Erlenmoos645 m07:25-4,3-4,3 (07:20)-0,9 (00:00)0,0 l/m²87%1022,60,0 km/h (0 Bft) NO12,9 km/h (3 Bft) O-NO (01:35)
Ertingen569 m07:25-3,6-3,7 (06:55)-0,6 (00:00)0,0 l/m²84%1022,76,4 km/h (2 Bft) N16,1 km/h (3 Bft) N-NO (04:10)
Friedrichshafen405 m07:25-1,9-1,9 (07:00)0,9 (13:30)0,0 l/m²79%1022,614,5 km/h (3 Bft) NO27,4 km/h (4 Bft) NO (15:10)
Günzburg443 m07:25-5,3-5,3 (07:20)-1,1 (00:00)0,0 l/m²88%1020,80,0 km/h (0 Bft) NO0,0 km/h (0 Bft) NO (00:00)
Hochdorf-Appendorf537 m07:25-6,1-6,1 (07:25)-1,7 (00:15)0,0 l/m²66%1022,54,8 km/h (1 Bft) N-NW14,5 km/h (3 Bft) N-NW (03:20)
Höchsten802 m07:25-4,6-4,7 (07:10)-1,4 (00:00)0,0 l/m²85%1020,419,3 km/h (3 Bft) N-NO25,7 km/h (4 Bft) NO (02:45)
Horgenzell618 m07:25-1,9-1,9 (03:45)-0,6 (00:05)0,0 l/m²76%1020,14,8 km/h (1 Bft) N-NO19,3 km/h (3 Bft) N-NO (00:50)
Hoßkirch632 m07:25-6,7-6,7 (07:25)-1,0 (00:15)0,0 l/m²89%1021,53,2 km/h (1 Bft) O-SO14,5 km/h (3 Bft) O-NO (00:20)
Isny, Am Dreifingerbach695 m07:25-4,9-6,2 (06:25)0,1 (01:00)0,0 l/m²88%1021,50,0 km/h (0 Bft) NW14,5 km/h (3 Bft) O-NO (01:05)
Isny, Weidachweg706 m07:25-4,9-5,3 (07:10)0,3 (00:25)0,0 l/m²77%1023,70,0 km/h (0 Bft) W12,9 km/h (3 Bft) W (00:10)
Kappel-Grafenhausen163 m07:20-1,9-2,1 (07:10)3,3 (14:55)0,0 l/m²81%1021,20,0 km/h (0 Bft) N30,6 km/h (5 Bft) N-NO (16:55)
Kißlegg-Staibshof709 m07:25-3,7-3,8 (07:10)-0,9 (00:00)0,0 l/m²83%1022,50,0 km/h (0 Bft) N-NO14,5 km/h (3 Bft) O (01:50)
Kressbronn398 m07:28-2,8-2,8 (07:20)1,4 (00:00)0,0 l/m²81%1021,23,2 km/h (1 Bft) NO22,5 km/h (4 Bft) NO (00:54)
Kreuzthal-Steinberg-Alpe930 m07:20-4,6-4,9 (06:50)-2,5 (00:00)0,0 l/m²88%1022,02,5 km/h (1 Bft) SW22,0 km/h (4 Bft) W-NW (00:10)
Kreuzthal-Steinberggipfel1040 m07:20-3,3-4,0 (02:20)-3,1 (07:20)-70%1022,013,3 km/h (3 Bft) O37,1 km/h (5 Bft) O-SO (00:10)
Kristberg im Montafon (AT)1425 m07:25-6,1-6,6 (04:51)-5,3 (00:40)0,0 l/m²55%1026,30,0 km/h (0 Bft) N10,1 km/h (2 Bft) NO (01:47)
Laupheim500 m07:25-3,8-4,0 (06:35)0,0 (00:00)0,0 l/m²83%1022,14,8 km/h (1 Bft) NO9,7 km/h (2 Bft) O-SO (00:20)
Leutkirch-Heggelbach670 m07:25-4,9-4,9 (07:00)-2,6 (00:30)0,0 l/m²88%1021,50,0 km/h (0 Bft) N-NO8,0 km/h (2 Bft) N-NO (03:30)
Lindau-Insel420 m07:25-1,8-1,8 (07:25)1,8 (14:55)0,0 l/m²74%1021,54,8 km/h (1 Bft) O-NO29,0 km/h (5 Bft) NO (17:05)
Lindau-Stadt412 m07:25-2,3-2,4 (08:00)1,2 (14:55)0,0 l/m²76%1021,76,4 km/h (2 Bft) N33,8 km/h (5 Bft) N-NO (15:40)
Maierhöfen im Allgäu733 m07:25-5,7-5,7 (07:25)-1,2 (01:35)0,0 l/m²81%1021,90,0 km/h (0 Bft) NW25,7 km/h (4 Bft) O-SO (02:05)
Maselheim543 m07:25-5,3-5,4 (08:00)-2,3 (13:20)0,0 l/m²88%1022,93,2 km/h (1 Bft) N24,1 km/h (4 Bft) O-NO (15:20)
Maselheim-Sulmingen548 m07:25-5,3-5,7 (07:15)-2,2 (15:15)0,0 l/m²90%1024,20,0 km/h (0 Bft) NW20,9 km/h (4 Bft) N-NO (12:15)
Mietingen-Baltringen528 m07:25-4,8-5,0 (06:35)-1,3 (00:45)0,0 l/m²87%1024,41,6 km/h (1 Bft) O-NO4,8 km/h (1 Bft) N-NO (01:20)
Mindelheim-Apfeltrach620 m07:26-6,2-6,2 (07:21)-2,7 (00:00)0,0 l/m²88%1024,00,0 km/h (0 Bft) NO0,0 km/h (0 Bft) O-NO (00:00)
Mittelbiberach577 m07:26-4,5-4,6 (06:56)-1,0 (00:16)0,0 l/m²85%1023,83,2 km/h (1 Bft) N12,8 km/h (3 Bft) NO (05:56)
Neresheim552 m07:00-7,3-7,3 (07:00)-2,0 (00:00)0,0 l/m²91%1021,70,0 km/h (0 Bft) O4,0 km/h (1 Bft) NO (01:00)
Neukirch570 m07:25-3,3-3,4 (07:15)-0,9 (14:35)0,0 l/m²81%1021,99,7 km/h (2 Bft) N-NO37,0 km/h (5 Bft) N-NO (11:55)
Ochsenhausen, Birkenstraße613 m07:25-5,7-5,7 (08:00)-2,2 (12:50)0,0 l/m²82%1023,01,6 km/h (1 Bft) O-SO1,6 km/h (1 Bft) SW (08:00)
Ochsenhausen, Unt. Wiesen575 m07:25-5,6-5,7 (06:15)-2,4 (00:00)0,0 l/m²88%1024,33,2 km/h (1 Bft) NO4,8 km/h (1 Bft) NO (00:00)
Opfenbach-Göritz561 m07:26-5,7-5,8 (07:19)-2,8 (00:00)0,0 l/m²79%1020,00,0 km/h (0 Bft) N-NO6,5 km/h (2 Bft) O-NO (00:18)
Ostrach619 m07:25-3,8-3,8 (04:15)-0,6 (00:00)0,0 l/m²89%1020,93,2 km/h (1 Bft) N-NW12,9 km/h (3 Bft) N-NW (06:30)
Ravensburg, Goethestraße428 m07:25-2,2-2,2 (07:20)1,3 (00:00)0,0 l/m²81%1021,717,7 km/h (3 Bft) NO17,7 km/h (3 Bft) NO (06:45)
Ravensburg-Wernsreute511 m07:25-3,2-3,4 (07:00)0,0 (15:50)0,0 l/m²83%1024,720,9 km/h (4 Bft) N35,4 km/h (5 Bft) N-NO (11:45)
Reichenbach an der Fils343 m07:25-2,7-2,7 (07:25)1,0 (00:00)0,0 l/m²78%1025,20,0 km/h (0 Bft) SO12,9 km/h (3 Bft) O-SO (05:10)
Riedlingen530 m07:25-3,5-3,6 (07:05)-1,0 (00:00)0,0 l/m²82%1022,90,0 km/h (0 Bft) O-NO0,0 km/h (0 Bft) N (00:00)
Rißtissen489 m07:25-3,4-3,5 (07:10)-0,2 (00:00)0,0 l/m²86%1020,50,0 km/h (0 Bft) O-NO8,0 km/h (2 Bft) O-NO (03:30)
Rottweil-Hausen681 m07:29-4,4-4,7 (06:55)-1,9 (00:00)0,0 l/m²84%1023,89,7 km/h (2 Bft) S-SW9,7 km/h (2 Bft) S-SW (07:27)
Schemmerhofen520 m07:252,72,7 (00:00)2,7 (00:00)0,0 l/m²55%1021,60,0 km/h (0 Bft) NO0,0 km/h (0 Bft) NO (00:00)
Silbertal im Montafon (AT)884 m07:26-4,6-4,7 (07:15)-1,6 (00:01)0,0 l/m²85%1026,20,0 km/h (0 Bft) O-NO0,0 km/h (0 Bft) O-NO (00:00)
Tettnang466 m07:29-2,2-2,2 (07:19)1,0 (00:00)0,0 l/m²75%1021,70,0 km/h (0 Bft) N16,2 km/h (3 Bft) O-SO (01:07)
Tuttlingen648 m07:21-4,5-4,5 (06:31)-2,1 (00:01)0,0 l/m²77%1023,20,0 km/h (0 Bft) NO5,2 km/h (1 Bft) W-SW (03:26)
Tuttlingen, Möhringer-Vorstadt711 m07:25-4,9-4,9 (08:00)-2,4 (16:05)0,0 l/m²84%1022,60,0 km/h (0 Bft) O-NO25,7 km/h (4 Bft) N-NW (12:35)
Ummendorf547 m07:25-4,9-5,1 (07:20)-0,7 (00:10)0,0 l/m²69%1023,70,0 km/h (0 Bft) O-NO16,1 km/h (3 Bft) O (01:05)
Ummendorf-Fischbach558 m07:25-4,8-5,4 (06:15)-1,9 (01:25)0,0 l/m²69%1023,56,4 km/h (2 Bft) O-NO6,4 km/h (2 Bft) O-NO (07:15)
Waldburg707 m07:25-3,2-3,5 (06:50)-0,8 (00:00)0,0 l/m²78%1021,58,0 km/h (2 Bft) N19,3 km/h (3 Bft) N (02:35)
Waltenhofen im Allgäu720 m07:25-7,9-7,9 (07:15)-2,2 (01:05)0,0 l/m²90%1022,20,0 km/h (0 Bft) W17,7 km/h (3 Bft) W (11:50)
Wangen, Südring548 m07:26-3,6-4,2 (06:51)-0,3 (00:00)0,0 l/m²83%1021,56,5 km/h (2 Bft) N-NO13,0 km/h (3 Bft) NO (01:25)
Warthausen-Birkenhard581 m07:24-4,4-4,4 (06:32)-1,2 (00:00)0,0 l/m²86%1023,311,9 km/h (3 Bft) N-NO13,7 km/h (3 Bft) NO (06:13)
Winterlingen785 m07:15-5,3-5,6 (06:30)-2,8 (01:00)0,0 l/m²82%1022,12,9 km/h (1 Bft) NO3,6 km/h (1 Bft) NO (00:55)

niederschlagsdatenbank | info | login - erfassung

Sollten Sie Interesse haben, an der Niederschlagsdatenbank teilzunehmen, finden Sie > hier < weitere Informationen.
Datum: . . Kalender
Anmerkung:0,0 = nicht messbarer Niederschlag
 -  = kein Niederschlag
 k  = kumulierter Niederschlag

< 02.04.201904.04.2019 >


Niederschlagswerte vom 03.04.2019    -    derzeit 112 Stationen

Die Niederschlagswerte des gewählten Tages lassen sich durch Klicken auf das Datum sortieren.
Die Angaben sind in l/m².

Station31.03.01.04.02.04.03.04.04.04.05.04.06.04.Bemerkung 03.04.
Aichstetten Ulmenstraße 7-------
Aichstetten-Nestbaum Nestbaum-------
Albbruck Furmisstr. 18--4,09,310,30,3-
Wechselhaft, Sonne, Wolken, Regenschauer Temp. von 14°C am Mittag auf [weiterlesen...]
Regen Schneeregen
Allmendingen Querqueviller Ring 6----2,00,3-
Amstetten-Reutti Gassenäcker 13--0,40,61,4--
Regen
Aulendorf Steinenbacher Weg 33-------
Aulendorf-Blönried Heuweg 32----4,5--
Bad Bellingen Rheinstraße 76-------
Bad Buchau Hanfweiher 1----2,0--
Bad Saulgau Walserweg--1,5-5,5--
Bad Saulgau-Hochberg Lampertsweiler Straße 12----4,2--
Bad Schussenried Konradstraße----2,6--
Bad Schussenried Lortzingstrasse----3,5--
Bad Schussenried Klosterstraße----2,5--
Bad Schussenried Theodor-Storm-Strasse----3,0--
Bad Schussenried-Hopferbach Unterer Öschweg 16/1----4,0--
Bad Schussenried-Lufthütte Hauptgasse 17----3,0--
Bad Schussenried-Sattenbeuren Ortsstraße 7-------
Bad Schussenried-Schwaigfurt Schwaigfurt 2----3,0--
Bad Waldsee-Haisterkirch Zur Spitzenkapelle 1----3,00,7-
+5/+17,5°C, sonnig
Bad Wurzach-Seibranz Kimpflerhof 2 ----4,7--
Baienfurt Untere Bergstrasse 7----8,0--
Balzheim Hinterm Liess 19----1,0--
Berg-Kleintobel Kleintobel----8,2--
Biberach Amriswilstrasse----1,8--
Biberach Strölinweg---0,02,0--
Regen
Biberach Erlenweg----2,0--
Biberach Neue Heimat 5-------
Biberach Mittelbergstraße 9----1,5--
Biberach Auf dem Lindele-------
Biberach-Bergerhausen Löcherstr.1----1,0--
Bierstetten Schloßbühl 6----5,5--
Blaubeuren-Pappelau Sotzenhauserstr.7----2,0--
Bühlertal Wolfinstraße 16---15,519,0--
Regen
Dettingen a. d. Iller Schleifweg 4----2,0--
Dornstadt-Tomerdingen Maienweg 9---0,51,5--
Dürnau Dorfäckerweg 5----4,0--
Eberhardzell Lilienweg----3,20,5-
Ebersbach-Roßwälden Appenwiesen--1,01,42,1--
Unterschiedlich bewölkt in der Nacht etwas Regen. 5,5 bis 15,5 Gra [weiterlesen...]
Regen
Ehingen Rosenstraße0,00,00,00,01,1--
Regen
Ehingen Zanderstraße----0,9--
Ehingen Schlaufenbühl---0,61,5--
Regen
Ehingen Schillerstraße----1,0--
Ehingen-Herbertshofen Tobelweg 9-------
Eislingen Albstraße 125--1,20,31,90,0-
Regen Nieselregen
Erbach-Bach Hauptstraße 24-------
Erlenmoos Haldenweg 15----3,0--
Füramoos Hungersberg 1----2,70,00,0
Gutenzell Kleinser Berg 1----2,5--
Gutenzell-Hürbel Bei der Sägmühle 1---1,03,01,0-
Regen
Herbertingen Drosselweg----4,50,2-
Die Föhnlage bescherte uns nochmal einen sonnigen aber windigen Mittw [weiterlesen...]
Herbertingen Hirschstrasse----3,5--
Hochdorf-Schweinhausen Lindenweg 2------2,9
Hohentengen-Bremen Bremer Halde 4----5,5--
Horgenzell-Ringgenweiler Ringgenweiler 620----7,1--
Hüttisheim Ulmer Weg 2---1,01,0--
Regen Gewitter
Illerkirchberg Mahdauweg 20--0,01,01,2--
Das Gewitter ging südlich vorbei
Regen
Illerrieden-Wangen Am Muckenberg 12----2,0--
Immenstaad Stockwiesen 10-------
Inzigkofen Butzenweg 1----3,0--
Isny Am Dreifingerbach 39----3,4--
Kirchberg Rosenstr. 7---0,01,5--
Regen
Kreuzthal-Steinberg-Alpe Im Kreuzbachthal 85----6,3--
Langenau Wasserstr. 54-1---0,52,01,0-
Langenenslingen Schattenweiler Str. 18-0,01,0-0,90,0-
Regen Nieselregen Bodennebel
Leutkirch Unterer Auenweg 25----3,20,0-
Leutkirch Nachtigallenweg 28----4,0--
Leutkirch-Adrazhofen Bergstraße 20----4,00,00,0
Merklingen Millergasse 9-------
Mietingen Seerosenweg 10-------
Mietingen-Walpertshofen Bussenweg 31----2,0--
Mittelbiberach-Reute Rindenmooser Straße 2----2,8--
Moosburg Käserweg 5----2,00,0-
Zumeist sonnig. Am Nachmittag mehr Wolken und zum Abend aufkommender W [weiterlesen...]
Münsingen-Rietheim In der Lise 20--0,4-2,0--
Neresheim Alfred-Delp-Straße 8---0,90,30,1-
Regen
Oberdischingen Normannenstraße 7-------
Ochsenhausen Ehrensberger Weg 5----2,3--
Öpfingen Hauptstraße 99---0,01,1--
Gewitter
Ostrach Uhlandweg----7,5--
Pfaffenhofen-Kadeltshofen Mühlbachstraße 4---0,01,00,0-
Pfullendorf Am Schweizersbild ----8,1--
Rangendingen Donaustraße 19---4,04,0--
Regen
Ravensburg Bleicherstraße----9,5--
Ravensburg-Schmalegg St.-Magdalena-Ring 42----7,0--
Ravensburg-Wernsreute Wernsreute 25----10,4--
Ravensburg-Weststadt Karl-Erb-Ring 142----9,4--
Regensburg Orleansstraße 3-------
Riedhausen Blütenweg 13--0,0-10,40,40,2
Temp. +3,3°C / +16,8°C, Windböen NW 37,0 km/h
Riedlingen Berliner Str. 41----0,9--
Riedlingen-Neufra Panoramaweg-------
Riedlingen-Neufra Riedlinger Strasse-0,00,00,01,40,00,0
+ 5,0 Grad, 85 % LF, noch trocken, stark bewölkt, Regen kommt
Schelklingen-Gundershofen Schwarzer-Straße 14--0,5-2,0--
Temp. zw. +5,2°C und +29,4°C. Sonne und lockere wolken. Abends mehr [weiterlesen...]
Schemmerberg Drosselweg 9----2,5--
Schwörstadt Schulstrasse 19--2,04,225,4--
Regen Schnee
Seekirch Haldenberg 7----1,2--
Sigmaringendorf Weingartenstraße 7----3,0--
Tuttlingen Möhringerstraße 11----6,0--
Ulm Eberhardtstraße 75----1,01,20,0
Ummendorf Tulpenweg----2,2--
Ummendorf Friedrich-Schiller-Str.----1,6--
Uttenweiler-Ahlen Seekircher Straße 8----1,0--
Vöhringen (Schwarzwald) Drosselweg 3--5,05,06,0--
Waldburg Kastanienweg11----5,2--
Wangen-Bergerhöhe Berg 2----8,6--
Warthausen An der Schloßhalde -------
Warthausen Schwabenwiesen ----0,7--
Warthausen-Barabein Barabein 20----1,5--
Weingarten Laurastraße----7,20,1-
+ 5,3 ° C um 5.00 Uhr
Weingarten Hoyerstraße-------
Weingarten Marienstraße----8,0--
Wolfegg-Veesers Veesers 1-------
Wolpertswende Aulendorfer Str. 17----4,00,0-

Stillgelegte Niederschlagsstationen    -    derzeit 49 Stationen

StationLetzte Meldung31.03.01.04.02.04.03.04.04.04.05.04.06.04.Bemerkung 03.04.
Allmannsweiler Eggatsweilerstr.2802.09.2014-------
Aulendorf-Rugetsweiler Erikaweg 325.07.2013-------
Aulendorf-Zollenreute Imterstraße 1209.02.2019-------
Bad Saulgau Willi-Burth-Straße19.09.2011-------
Bad Saulgau Eichendorffweg28.03.2013-------
Bad Saulgau Seewattenstraße 12815.01.2014-------
Bad Saulgau-Lampertsweiler Valentinstr. 2618.02.2015-------
Bad Schussenried-Steinhausen Drosselgasse 4/126.09.2012-------
Bad Waldsee-Michelwinnanden Michelberg 531.12.2014-------
Bad Waldsee-Osterhofen Hochwaldgasse 406.03.2015-------
Bad Waldsee-Steinach Hofraingasse 1510.11.2013-------
Bad Wurzach-Dietmanns Postweg 519.01.2019-------
Bad Wurzach-Haidgau Wengener Straße 507.10.2012-------
Bad Wurzach-Ziegelbach Ziegelbach-Greut 507.11.2014-------
Bergatreute Bolanden 113.02.2012-------
Betzenweiler Offinger Straße 505.01.2017-------
Burgrieden Am Nonnenberg 328.10.2013-------
Burgrieden-Rot Schmiedgasse 518.09.2013-------
Eberhardzell Schillerstraße05.07.2010-------
Ehingen Am Elzengraben17.06.2016-------
Gammertingen Schillerstraße 2216.01.2016-------
Griesingen Blumenstraße 906.10.2015-------
Günzburg Erlenbadweg 34 1/231.12.2010-------
Hoßkirch Kirchstraße 805.01.2018-------
Ingoldingen-Grodt Ingoldinger Weg 1919.11.2016-------
Kisslegg Kirchmoosstraße02.05.2011-------
Krauchenwies-Hausen Rosenrain 123.11.2013-------
Kressbronn Irisstraße 410.03.2010-------
Leutkirch-Ottmannshofen Spitalriedstraße 527.07.2012-------
Leutkirch-Rotis Rotis 5/208.05.2016-------
Leutkirch-Wuchzenhofen Untere Kirchstraße 18/119.09.2016-------
Mietingen Hangweg 1530.12.2017-------
Mössingen-Bästenhardt Weissdornweg 721.07.2014-------
Ostrach Heiligenberger Straße19.08.2013-------
Pfullendorf Ringstraße 18.03.2012-------
Ravensburg Olgastraße30.10.2016-------
Seltmans Amselweg 2209.04.2013-------
Stuttgart-Bad Cannstatt Beuthener Str. 6703.02.2013-------
Stuttgart-Möhringen Glashütter Weg 1023.04.2017-------
Stuttgart-Rohr Hirschsprung 307.11.2012-------
Talheim Im Schecken 2121.08.2016-------
Tannheim Eggmannstr. 42 22.10.2017-------
Tettnang-Ramsbach Jahnstr. 24/126.03.2011-------
Tuttlingen-Möhringen Belchenstraße01.01.2015-------
Ummendorf Bergstraße23.10.2017-------
Vogt Mühlwies 1822.05.2015-------
Wangen-Atzenberg Keplerweg 324.02.2019-------
Weingarten Bischof-Sproll-Straße30.06.2011-------
Wilhelmsdorf Riedhauser Straße 28.10.2012-------
Wilhelmsdorf Seefeld20.08.2013-------
Wurmlingen An der Steig 3014.10.2016-------
Die Niederschlagswerte des gewählten Tages lassen sich durch Klicken auf das Datum sortieren.
Die Angaben sind in l/m².

Wetterbeobachtungen Legende:

  • Regen
  • Nieselregen
  • Schneeregen
  • Schnee
  • Graupel
  • Eiskörner
  • Hagel
  • Bodennebel
  • Gewitter
  • Nebelnässe
  • Schneegriesel

Grafische Darstellung der Tagesniederschläge vom 03.04.2019

< 02.04.201904.04.2019 >Monats- und Jahresniederschlag


 
wetterstationen
wetterstationen
- derzeit 83 Stationen
niederschlagsdatenbank
wetterstationen
- kartographische Darstellung
niederschlagsdatenbank
niederschlagsstationen
- derzeit 112 Stationen
niederschlagsdatenbank
niederschlagsstationen
- kartographische Darstellung
 
  treffpunkt & service
--- Anzeigen --------------------------------
zugriffe:
insgesamt: 46.623.798
aktueller monat: 987
heute: 987
momentan online: 58
 
 
monatshöchstwert: 653.625
vorheriger monat: 364.213
gestern: 13.565
tageshöchstwert: 57.073
 
wetterwarte süd
 
konradstraße 3
info@wetterwarte-sued.com
roland roth
 
88427 bad schussenried